リニア彗星

392P/LINEAR (2020)

English version
Home page
Updated on April 17, 2020

---------------------------------------------------------------------

・ プロフィール

符号 392P/2019 U3
検出日 2019年10月26日
検出光度 19.2等
検出者 K. Sarneczky (Konkoly Observatory)

・ 写真集

・ 軌道要素

Epoch 2020 Mar. 12.0 TT = JDT 2458920.5
T 2020 Mar. 31.84836 TT                                 Rudenko
q   1.9502374            (2000.0)            P               Q
n   0.06461661     Peri.   71.99625     -0.11839124     -0.99230830
a   6.1504461      Node    24.88844     +0.87543246     -0.12149581
e   0.6829112      Incl.    4.92937     +0.46861661     -0.02372778
P  15.3
From 398 observations 1989 Nov. 22-2020 Feb. 12, mean residual 0".5.

・ 光度変化

        m1 = 14.5 + 5 logΔ + 10.0 log r

---------------------------------------------------------------------

軌道要素はM.P.E.C. 2020-F67に掲載されたものです。
光度グラフはComet for Windowsで作成したものです。

---------------------------------------------------------------------

Copyright(C) Seiichi Yoshida (comet@aerith.net). All rights reserved.